Temp
-15 -15 -15 -15 -15 -15 -15 -15 -15 -15 -15 -14 -14 -15 -15 -15 -15 -15 -15 -15 -14 -14 -14 -14 -15 -14 -14 -14 -14 -14 -14 -14 -14 -14 -14 -14 -14 -14 -15 -15 -15 -15
-15 -15 -15 -15 -15 -15 -15 -15 -15 -15 -15 -15 -15 -15 -15 -15 -15 -15 -15 -15 -15 -14 -14 -15 -15 -15 -15 -15 -14 -14 -14 -14 -14 -14 -14 -14 -14 -14 -14 -14 -15 -15
-15 -15 -15 -15 -15 -15 -15 -15 -15 -15 -15 -15 -15 -15 -15 -15 -15 -15 -15 -15 -15 -15 -14 -14 -15 -15 -15 -15 -15 -14 -14 -14 -14 -14 -14 -14 -14 -14 -14 -14 -14 -14
-16 -16 -16 -15 -15 -15 -15 -15 -15 -15 -15 -15 -15 -15 -15 -15 -15 -15 -15 -15 -15 -15 -15 -14 -15 -15 -15 -15 -15 -15 -14 -14 -14 -14 -14 -14 -14 -14 -14 -14 -14 -14
-16 -16 -16 -16 -15 -15 -15 -15 -15 -15 -15 -15 -15 -15 -15 -15 -15 -15 -15 -15 -15 -15 -15 -15 -15 -15 -15 -15 -15 -15 -14 -14 -14 -14 -14 -14 -14 -14 -14 -14 -14 -14
-16 -16 -16 -16 -15 -15 -15 -15 -15 -15 -15 -15 -15 -15 -15 -15 -15 -15 -15 -15 -15 -15 -15 -15 -15 -15 -15 -15 -15 -15 -14 -14 -14 -14 -14 -14 -14 -14 -14 -14 -14 -14
-16 -16 -16 -16 -15 -15 -15 -15 -15 -15 -15 -15 -15 -15 -16 -15 -15 -15 -15 -15 -15 -15 -15 -15 -15 -15 -15 -15 -15 -15 -14 -14 -14 -14 -14 -14 -14 -14 -14 -14 -14 -14
-16 -16 -16 -16 -15 -15 -15 -15 -15 -15 -15 -15 -15 -15 -15 -15 -15 -15 -15 -15 -15 -15 -15 -15 -15 -15 -15 -15 -15 -15 -15 -14 -14 -14 -14 -14 -14 -14 -14 -14 -14 -14
-16 -16 -15 -15 -15 -15 -15 -15 -15 -15 -15 -15 -15 -15 -15 -15 -15 -15 -15 -15 -15 -15 -15 -15 -15 -15 -15 -15 -15 -15 -15 -15 -15 -14 -14 -14 -14 -14 -14 -14 -14 -14
-16 -16 -15 -15 -15 -15 -15 -15 -15 -15 -15 -15 -15 -15 -15 -15 -15 -15 -15 -15 -15 -16 -16 -16 -15 -15 -15 -15 -15 -15 -15 -15 -15 -15 -15 -14 -14 -14 -14 -14 -14 -15
-16 -16 -16 -16 -16 -15 -15 -15 -15 -15 -15 -15 -15 -15 -15 -15 -15 -15 -15 -15 -16 -16 -16 -16 -16 -15 -15 -15 -15 -15 -15 -15 -15 -15 -15 -15 -15 -14 -14 -14 -14 -15
-16 -16 -16 -16 -15 -15 -15 -15 -15 -15 -15 -15 -16 -15 -15 -15 -15 -15 -15 -16 -16 -16 -16 -16 -16 -16 -15 -15 -15 -15 -15 -15 -15 -15 -15 -15 -15 -15 -15 -15 -15 -15
-16 -16 -16 -16 -16 -15 -15 -16 -16 -15 -16 -16 -16 -16 -16 -15 -15 -15 -16 -16 -16 -16 -16 -16 -16 -16 -16 -15 -15 -16 -16 -15 -15 -15 -15 -15 -15 -15 -15 -15 -15 -15
-16 -16 -16 -16 -16 -16 -15 -16 -16 -16 -16 -16 -16 -16 -16 -15 -15 -15 -16 -16 -16 -16 -16 -16 -16 -16 -16 -16 -16 -16 -16 -15 -15 -15 -15 -15 -15 -15 -15 -15 -15 -15
-16 -16 -16 -16 -16 -16 -16 -16 -16 -16 -16 -16 -16 -16 -16 -16 -15 -16 -16 -16 -16 -16 -16 -16 -16 -16 -16 -16 -16 -16 -16 -16 -16 -15 -15 -15 -15 -15 -15 -15 -15 -15
-16 -16 -16 -16 -16 -16 -16 -16 -16 -16 -16 -16 -16 -16 -16 -16 -16 -16 -16 -16 -16 -16 -16 -16 -16 -16 -16 -16 -16 -16 -16 -16 -16 -16 -16 -15 -15 -15 -15 -15 -15 -15
-16 -16 -16 -16 -16 -16 -16 -16 -16 -16 -16 -16 -16 -16 -16 -16 -16 -16 -16 -16 -16 -16 -16 -16 -16 -16 -16 -16 -16 -16 -16 -16 -16 -16 -16 -15 -15 -15 -16 -16 -15 -15
-17 -16 -16 -16 -16 -16 -16 -16 -16 -16 -16 -16 -16 -16 -17 -17 -17 -17 -16 -17 -17 -17 -17 -16 -17 -17 -16 -16 -16 -16 -16 -16 -16 -16 -16 -16 -16 -16 -16 -16 -16 -16
-17 -17 -17 -17 -16 -17 -17 -17 -16 -16 -16 -17 -17 -17 -17 -17 -17 -17 -17 -17 -17 -17 -17 -17 -17 -17 -16 -16 -16 -16 -16 -16 -16 -16 -16 -16 -16 -16 -16 -16 -16 -16
-17 -17 -17 -17 -17 -17 -17 -17 -17 -16 -16 -17 -17 -17 -17 -17 -17 -17 -17 -17 -17 -17 -16 -16 -17 -17 -17 -16 -16 -16 -16 -16 -16 -16 -16 -16 -16 -16 -16 -16 -16 -16
-18 -17 -17 -17 -17 -17 -17 -17 -17 -17 -17 -17 -17 -17 -17 -17 -17 -17 -17 -17 -17 -17 -17 -16 -17 -17 -17 -17 -17 -17 -17 -17 -17 -17 -17 -17 -16 -16 -16 -16 -16 -16
-18 -18 -18 -18 -18 -18 -18 -18 -18 -17 -17 -17 -17 -17 -17 -17 -17 -17 -17 -17 -17 -17 -17 -17 -17 -17 -17 -17 -17 -17 -17 -17 -17 -17 -17 -17 -17 -16 -16 -16 -16 -16
-18 -18 -18 -18 -18 -18 -18 -18 -18 -18 -18 -17 -17 -17 -17 -17 -17 -17 -17 -17 -17 -17 -17 -17 -17 -18 -17 -17 -18 -17 -17 -17 -17 -17 -17 -17 -17 -17 -17 -16 -16 -16
-18 -18 -18 -18 -18 -18 -18 -18 -18 -18 -18 -18 -18 -18 -17 -17 -17 -17 -17 -17 -17 -17 -17 -17 -17 -18 -18 -17 -17 -17 -17 -17 -17 -17 -17 -17 -17 -17 -17 -17 -17 -17
-18 -18 -18 -18 -18 -18 -18 -19 -19 -19 -19 -18 -18 -18 -18 -17 -17 -17 -17 -17 -17 -17 -17 -17 -17 -18 -18 -17 -17 -17 -17 -17 -17 -18 -18 -17 -17 -17 -17 -17 -17 -17
-19 -18 -18 -18 -18 -18 -18 -19 -19 -19 -19 -19 -18 -18 -18 -18 -18 -18 -18 -18 -18 -18 -18 -17 -17 -18 -18 -18 -18 -18 -18 -18 -18 -18 -18 -18 -18 -18 -18 -18 -17 -17
Height
5755 5756 5757 5757 5758 5758 5758 5758 5758 5759 5759 5759 5760 5760 5760 5760 5759 5758 5758 5758 5758 5758 5758 5758 5757 5757 5756 5756 5755 5754 5753 5753 5752 5752 5752 5751 5751 5751 5751 5751 5751 5751
5751 5751 5752 5753 5754 5754 5755 5755 5755 5756 5756 5756 5757 5757 5757 5757 5756 5756 5756 5756 5756 5755 5755 5755 5755 5755 5754 5754 5753 5752 5752 5751 5750 5750 5749 5749 5749 5749 5749 5749 5749 5749
5747 5748 5749 5749 5749 5750 5751 5751 5751 5752 5753 5753 5753 5753 5754 5754 5753 5753 5753 5753 5753 5753 5753 5753 5752 5752 5752 5751 5751 5750 5749 5749 5748 5748 5747 5747 5746 5746 5746 5746 5746 5746
5744 5744 5745 5745 5745 5746 5747 5747 5747 5748 5749 5749 5750 5750 5750 5750 5750 5749 5749 5750 5750 5750 5749 5749 5749 5749 5749 5749 5749 5748 5747 5747 5746 5746 5745 5745 5744 5744 5744 5744 5744 5744
5739 5739 5740 5741 5741 5742 5743 5742 5743 5743 5744 5745 5746 5746 5746 5746 5746 5746 5746 5746 5746 5746 5746 5746 5746 5746 5746 5746 5746 5746 5745 5745 5744 5744 5743 5743 5742 5742 5741 5741 5741 5741
5735 5735 5735 5735 5736 5737 5738 5738 5738 5738 5739 5741 5741 5742 5742 5742 5742 5742 5742 5743 5743 5743 5743 5743 5743 5743 5743 5743 5743 5743 5743 5743 5742 5742 5741 5741 5740 5740 5739 5739 5739 5739
5730 5730 5730 5730 5730 5731 5732 5732 5732 5733 5734 5735 5736 5737 5738 5738 5738 5739 5739 5739 5740 5740 5740 5740 5740 5740 5739 5740 5740 5740 5740 5740 5740 5740 5739 5739 5738 5738 5737 5737 5736 5736
5724 5725 5726 5725 5725 5726 5727 5727 5727 5727 5729 5730 5731 5732 5733 5734 5734 5735 5735 5736 5736 5736 5736 5736 5736 5736 5736 5736 5736 5737 5737 5737 5737 5737 5737 5736 5736 5736 5735 5735 5734 5734
5720 5720 5721 5721 5720 5720 5721 5722 5721 5722 5724 5725 5725 5726 5728 5728 5729 5730 5731 5732 5732 5733 5733 5733 5732 5732 5732 5732 5732 5733 5733 5733 5734 5734 5734 5734 5734 5733 5733 5733 5732 5732
5716 5716 5716 5716 5716 5715 5716 5716 5716 5717 5718 5719 5720 5721 5722 5723 5724 5725 5726 5727 5728 5729 5729 5729 5729 5729 5729 5728 5729 5729 5729 5730 5730 5730 5730 5730 5730 5730 5730 5730 5730 5730
5711 5711 5712 5712 5712 5711 5711 5711 5710 5711 5712 5713 5714 5715 5716 5717 5718 5719 5721 5722 5723 5724 5724 5724 5725 5725 5725 5725 5725 5725 5725 5726 5726 5727 5727 5727 5727 5727 5727 5727 5727 5727
5708 5707 5707 5707 5707 5706 5705 5705 5704 5704 5706 5708 5708 5709 5711 5712 5712 5713 5715 5717 5718 5718 5719 5720 5720 5721 5721 5721 5721 5722 5722 5722 5722 5723 5723 5724 5724 5724 5724 5723 5723 5723
5704 5704 5703 5703 5702 5702 5701 5701 5700 5700 5701 5702 5703 5704 5705 5706 5706 5707 5709 5711 5712 5713 5714 5714 5715 5716 5716 5716 5717 5718 5718 5718 5718 5719 5719 5720 5720 5720 5720 5720 5720 5720
5700 5700 5699 5699 5699 5698 5698 5697 5697 5696 5696 5697 5697 5698 5699 5700 5701 5702 5703 5705 5707 5708 5709 5709 5709 5711 5712 5712 5713 5713 5713 5713 5714 5715 5715 5716 5716 5716 5716 5716 5716 5716
5695 5695 5695 5695 5695 5694 5694 5693 5693 5693 5692 5692 5692 5693 5693 5694 5695 5696 5697 5700 5702 5703 5704 5704 5704 5705 5707 5707 5708 5708 5708 5709 5709 5710 5711 5711 5712 5712 5712 5712 5713 5713
5690 5691 5691 5691 5690 5690 5690 5690 5690 5689 5689 5688 5688 5688 5689 5689 5690 5691 5693 5695 5696 5697 5698 5700 5700 5701 5701 5702 5703 5703 5704 5704 5705 5706 5706 5707 5708 5708 5708 5709 5709 5709
5686 5686 5686 5686 5686 5686 5686 5686 5686 5685 5685 5684 5684 5684 5685 5686 5687 5688 5689 5691 5691 5692 5693 5695 5695 5696 5696 5697 5698 5699 5699 5699 5700 5701 5702 5702 5703 5704 5704 5705 5705 5705
5682 5682 5682 5682 5682 5682 5682 5682 5682 5682 5682 5681 5681 5681 5682 5682 5683 5684 5685 5686 5687 5688 5689 5690 5691 5691 5691 5692 5693 5693 5694 5694 5695 5696 5697 5697 5698 5699 5700 5700 5701 5701
5678 5677 5677 5678 5677 5677 5677 5678 5678 5678 5678 5678 5678 5678 5678 5679 5679 5680 5682 5682 5683 5684 5685 5686 5687 5687 5687 5688 5688 5688 5689 5689 5690 5691 5692 5692 5693 5694 5695 5696 5696 5696
5673 5673 5673 5672 5672 5671 5672 5672 5673 5674 5674 5674 5674 5674 5675 5675 5676 5677 5678 5678 5678 5679 5680 5681 5682 5682 5682 5683 5683 5684 5684 5684 5685 5686 5687 5688 5689 5690 5691 5691 5691 5692
5668 5667 5667 5666 5665 5665 5666 5667 5669 5669 5670 5671 5671 5671 5671 5672 5672 5673 5673 5673 5673 5675 5675 5676 5677 5677 5677 5678 5678 5679 5679 5680 5680 5681 5682 5683 5684 5685 5686 5687 5687 5687
5664 5663 5662 5661 5661 5661 5662 5663 5664 5665 5666 5666 5667 5667 5668 5668 5668 5668 5668 5668 5669 5670 5670 5671 5672 5672 5672 5673 5674 5674 5674 5675 5676 5676 5677 5678 5679 5680 5681 5682 5682 5682
5660 5660 5659 5657 5657 5658 5659 5660 5660 5661 5662 5662 5662 5663 5663 5663 5664 5664 5664 5664 5664 5665 5666 5666 5667 5667 5667 5668 5669 5670 5670 5671 5671 5672 5673 5674 5675 5675 5676 5677 5677 5677
5656 5656 5655 5655 5655 5655 5655 5655 5656 5656 5657 5658 5658 5658 5659 5659 5659 5659 5659 5659 5659 5660 5661 5661 5662 5662 5662 5663 5664 5665 5665 5666 5667 5667 5668 5669 5670 5671 5671 5672 5672 5673
5652 5652 5652 5652 5652 5652 5651 5650 5651 5652 5653 5653 5654 5654 5654 5654 5654 5654 5654 5654 5654 5655 5656 5657 5658 5658 5658 5659 5660 5660 5660 5661 5662 5663 5664 5664 5665 5666 5666 5667 5667 5668
5648 5648 5648 5648 5648 5648 5647 5646 5645 5646 5647 5648 5649 5650 5650 5650 5650 5649 5649 5649 5650 5650 5651 5653 5654 5654 5653 5654 5655 5655 5655 5656 5657 5658 5659 5659 5660 5661 5662 5662 5663 5663
Wind_Speed
31 29 29 28 27 26 25 25 24 23 23 23 23 22 22 22 22 23 24 23 22 22 20 20 22 22 21 20 18 16 15 14 13 12 12 12 12 12 11 10 9 9
33 31 30 30 29 28 26 26 26 24 24 23 23 23 23 22 22 23 24 23 23 23 22 21 22 23 23 22 21 18 16 14 14 13 13 12 12 13 13 13 12 11
37 34 32 32 31 29 27 28 27 26 25 24 23 23 23 23 23 24 24 24 24 24 23 22 23 24 24 23 22 20 17 15 14 13 13 13 13 13 13 14 14 14
40 40 38 36 34 30 29 30 29 28 27 26 24 24 24 24 25 26 25 25 24 24 24 23 23 24 24 23 22 20 18 16 14 13 13 13 14 14 14 15 15 15
42 41 40 39 37 33 32 32 32 30 29 27 25 24 25 25 26 27 28 27 26 25 25 24 23 23 23 22 21 20 19 18 15 14 14 14 15 15 15 16 16 17
42 41 39 39 38 37 35 35 34 33 30 28 27 26 26 27 28 29 30 29 27 26 25 24 23 23 23 22 21 21 20 19 17 16 16 16 16 16 16 17 18 18
39 39 38 38 39 39 36 35 36 36 34 32 30 29 28 29 29 30 31 31 29 28 26 26 25 24 23 23 22 21 21 21 20 19 18 18 18 18 18 18 19 19
38 37 37 37 38 37 36 36 38 40 39 37 36 34 32 31 32 32 32 32 31 30 28 27 26 25 24 24 23 23 23 23 22 21 20 20 20 20 19 19 19 19
36 36 36 36 37 37 36 38 39 40 41 40 39 38 34 33 34 33 33 33 33 32 30 29 28 26 25 24 25 24 24 24 24 24 23 21 21 21 20 19 19 20
35 34 34 35 35 35 36 38 40 41 40 39 39 38 35 34 35 35 35 34 34 33 32 31 30 29 27 26 26 26 26 25 25 25 24 23 21 21 19 19 19 20
36 35 34 34 34 35 36 38 41 42 41 41 41 40 37 37 38 38 36 35 35 35 34 34 32 30 29 28 27 28 28 27 27 27 26 23 22 21 19 19 19 20
35 34 33 33 34 35 36 38 40 41 40 41 41 39 38 39 41 41 39 37 37 37 36 35 34 32 30 29 28 28 29 29 29 28 27 24 23 22 21 20 21 22
35 33 33 33 33 34 34 34 37 39 39 39 39 38 38 38 38 39 39 38 38 37 36 36 34 32 30 29 28 28 29 29 30 29 28 25 24 23 22 22 23 24
37 35 34 33 32 31 30 27 27 30 32 35 38 39 39 38 37 37 38 40 39 37 35 35 34 31 29 29 28 28 29 29 29 29 29 27 26 25 24 24 24 25
39 38 36 34 33 32 31 28 26 25 26 27 31 33 35 36 38 39 39 37 37 35 33 33 34 32 31 29 28 29 29 28 28 29 29 29 28 26 25 25 25 26
39 38 37 36 36 35 34 33 31 29 27 27 27 27 28 28 31 35 34 32 32 33 32 32 32 32 31 29 27 27 26 26 27 29 30 30 29 28 27 26 26 27
37 38 37 36 36 35 34 34 33 30 27 26 26 26 26 24 25 29 30 30 31 31 30 30 29 30 30 29 26 26 26 25 26 28 29 31 31 29 28 27 28 27
34 35 36 36 36 35 33 33 32 29 27 26 25 25 23 23 25 28 29 30 31 30 29 29 28 29 30 30 28 28 28 27 27 28 30 31 32 30 29 29 29 28
31 32 33 34 36 36 35 33 31 30 29 27 27 26 24 24 25 26 26 29 31 31 30 31 30 30 32 32 31 30 29 28 28 30 31 32 32 31 30 30 30 30
25 27 29 32 34 35 35 34 32 31 28 26 24 25 26 26 27 26 27 31 33 32 32 32 31 32 33 33 32 32 30 29 30 31 32 32 32 31 31 31 31 31
19 21 24 27 30 31 31 32 31 31 31 29 26 25 25 27 29 28 30 33 34 33 34 34 32 31 34 34 33 32 31 30 30 31 32 32 31 31 31 32 31 31
19 18 20 22 23 24 25 27 29 30 31 32 31 28 28 28 27 28 29 32 33 32 33 34 31 30 33 34 32 31 32 31 31 31 31 31 31 32 32 33 32 31
26 23 22 22 22 23 24 26 27 29 29 29 29 29 29 29 29 29 31 33 34 33 32 33 31 30 33 33 31 31 33 33 32 31 31 31 32 32 33 33 32 31
29 28 27 26 25 27 29 28 28 29 29 28 28 27 28 30 30 31 31 33 34 32 32 33 32 32 33 33 32 33 35 34 32 31 32 32 33 33 34 33 32 31
28 27 27 26 23 24 27 29 29 30 30 29 29 28 28 29 30 31 30 31 31 31 31 31 31 33 35 36 35 35 35 34 34 33 33 33 33 34 33 33 32 32
28 27 26 25 23 22 23 25 27 29 30 30 30 29 29 29 30 31 29 28 28 29 29 28 28 32 36 36 35 34 34 34 35 35 34 34 34 33 33 33 33 33
Wind_Direction
269 268 268 268 269 271 274 277 276 277 281 280 278 278 278 279 280 282 283 284 284 284 285 287 289 291 292 291 291 292 292 293 293 293 293 292 291 291 289 288 287 289
269 269 269 268 268 269 272 274 273 273 277 277 277 277 276 276 276 277 280 281 282 283 284 285 286 286 288 288 288 288 287 287 288 291 293 293 293 291 289 287 285 285
272 273 273 271 271 270 270 271 270 269 270 272 274 276 275 273 273 273 275 276 278 280 282 284 284 283 284 285 284 284 284 284 285 289 292 294 295 294 290 287 284 282
276 278 277 275 274 275 273 270 267 265 266 267 269 273 274 271 270 270 271 272 273 276 279 282 282 281 281 282 281 280 280 281 282 285 289 291 293 296 295 292 288 283
277 280 281 276 274 277 277 273 267 263 263 264 266 268 270 268 267 266 267 268 269 271 275 278 280 279 277 277 277 277 277 277 277 280 284 287 289 292 294 294 293 289
277 278 278 275 273 276 278 274 268 262 261 262 263 264 266 266 265 264 264 265 266 268 271 273 276 275 273 272 272 273 274 273 273 276 280 284 286 288 290 290 291 290
277 276 275 273 273 273 274 273 268 263 261 261 261 264 265 265 264 262 262 264 265 267 268 269 272 272 269 267 267 269 271 270 269 271 275 280 284 287 287 287 286 286
278 279 278 276 275 273 271 271 269 265 264 263 262 263 263 263 263 261 261 262 264 266 267 267 268 269 266 264 264 265 267 267 266 266 270 275 281 285 286 285 284 284
279 281 281 279 278 276 273 271 270 267 266 265 263 262 260 260 260 259 259 261 262 264 267 267 265 266 265 262 262 264 266 267 266 266 267 272 278 282 283 283 283 282
281 282 280 277 278 278 277 274 272 268 265 264 262 261 261 259 258 258 257 258 261 263 264 265 265 265 264 262 260 261 263 264 265 265 266 270 274 277 279 281 282 282
283 284 281 279 278 278 279 278 274 268 264 262 262 262 262 259 256 256 255 257 259 260 261 263 265 265 263 260 259 259 261 262 263 262 262 266 270 272 273 276 279 280
280 283 285 284 280 278 281 283 278 271 266 264 264 264 263 261 258 256 254 254 256 257 259 262 263 264 263 261 258 258 261 263 263 262 260 262 265 266 268 272 276 279
279 282 285 287 285 282 283 282 277 273 270 267 266 267 266 265 263 259 254 252 253 255 257 259 261 262 263 261 259 258 260 262 263 263 261 260 261 261 263 268 274 278
281 282 283 285 287 284 283 282 276 272 270 266 265 267 266 265 264 262 255 251 251 251 252 256 261 263 261 259 258 258 259 261 262 262 261 259 259 260 262 267 273 277
281 282 281 281 282 282 283 284 284 280 276 272 268 265 264 262 258 254 251 249 248 248 249 254 260 262 260 258 257 257 258 260 261 261 259 257 258 261 264 268 273 275
280 280 280 279 278 280 281 283 285 284 281 278 274 267 265 262 253 247 247 249 249 250 252 255 258 260 261 259 257 257 259 261 261 260 258 255 256 261 265 268 272 274
280 279 279 278 279 280 280 281 283 283 281 279 275 269 265 262 254 248 250 252 252 252 253 254 256 260 261 260 258 259 261 262 262 260 257 254 256 260 264 266 270 271
279 278 277 276 277 278 279 280 280 279 279 278 274 268 263 260 257 254 254 254 254 254 251 251 254 258 260 261 262 262 262 263 262 259 255 252 254 259 262 265 268 270
276 277 277 276 276 277 278 279 278 277 275 273 270 265 262 261 259 257 258 259 259 257 255 254 257 260 262 263 265 264 264 263 262 259 254 251 253 257 260 263 266 269
278 276 277 276 275 275 275 274 274 273 270 269 269 266 262 260 260 258 258 259 261 261 261 261 263 264 265 265 266 266 266 264 261 258 253 251 253 257 259 262 267 269
285 280 278 275 273 273 273 272 269 267 264 264 268 269 265 262 262 262 261 261 262 262 262 262 263 264 265 266 266 266 266 263 258 254 252 252 254 256 260 263 267 269
275 278 283 283 278 275 277 276 273 271 268 267 267 269 268 265 262 263 264 265 265 264 263 261 260 261 264 265 265 264 262 258 254 251 250 252 255 257 260 263 265 266
264 268 278 286 288 286 284 283 281 278 277 275 271 268 267 265 260 258 260 263 265 266 264 261 260 260 262 263 261 258 254 251 249 249 251 253 257 259 262 263 264 265
263 263 266 275 287 291 286 281 280 279 278 277 275 270 265 261 259 258 260 262 264 265 263 261 261 261 261 260 256 251 249 250 250 252 254 257 260 262 263 263 263 264
263 265 266 269 278 288 288 282 277 277 276 275 274 271 267 263 261 261 262 264 263 263 263 264 263 261 260 258 253 247 247 251 253 255 257 259 261 262 262 262 262 263
260 265 268 267 265 274 290 290 279 275 275 275 273 271 268 265 263 262 262 263 261 261 261 262 259 255 254 254 252 250 251 253 254 256 257 258 259 260 261 261 261 263